SCP
0 0 0 0 0 0 0 0 0 0 0 0 0 0 0 0 0 0 0 0 0 0 0 0 0 0 0 0 0 0 0 0 0 0 0 0 0 0 0 0 0 0 0
0 0 0 0 0 0 0 0 0 0 0 0 0 0 0 0 0 0 0 0 0 0 0 0 0 0 0 0 0 0 0 0 0 0 -0 0 0 0 0 0 0 0 0
0 0 0 0 0 0 0 0 0 0 0 0 0 0 0 0 0 0 0 0 0 0 0 0 0 0 0 0 0 0 0 0 0 0 0 0 0 0 0 0 0 0 0
0 0 0 0 0 0 0 0 0 0 0 0 0 0 0 0 0 0 0 0 0 0 0 0 0 0 0 0 0 0 0 0 0 0 0 0 0 0 0 0 0 0 0
0 0 0 0 0 0 0 0 0 0 0 0 0 0 0 0 0 0 0 0 0 0 0 0 0 0 0 0 0 0 0 0 0 0 0 0 0 0 0 0 0 0 0
0 0 0 0 0 0 0 0 0 0 0 0 0 0 0 0 0 0 0 0 0 0 0 0 0 0 0 0 0 0 0 0 0 0 0 0 0 0 0 0 0 0 0
0 0 0 0 0 0 0 0 0 0 0 0 0 0 0 0 0 0 0 0 0 0 0 0 0 0 0 0 0 0 0 0 0 0 0 0 0 0 0 0 0 0 0
0 0 0 0 0 0 0 0 0 0 0 0 0 0 0 0 0 0 0 0 0 0 0 0 0 0 0 0 0 0 0 0 0 0 0 0 0 0 0 0 0 0 0
-0 0 0 0 0 0 0 0 0 0 0 0 0 0 0 0 0 0 0 0 0 0 0 0 0 0 0 0 0 0 0 0 0 0 0 0 0 0 0 0 0 0 0
-0 0 0 0 1 0 0 0 0 0 0 0 0 0 0 0 0 0 0 0 0 0 0 0 0 0 0 0 0 0 0 0 0 0 0 0 0 0 0 0 0 0 0
-0 0 0 0 0 0 0 0 0 0 0 0 0 0 0 0 0 0 0 0 0 0 0 0 0 0 0 0 0 0 0 0 0 0 0 0 0 0 0 0 0 0 0
-0 -0 0 0 0 0 0 0 0 0 0 0 0 0 0 0 0 0 0 0 0 0 0 0 0 0 0 0 0 0 0 0 0 0 0 0 0 0 0 0 0 0 0
0 0 0 0 0 0 0 0 0 0 0 0 0 0 0 0 0 0 0 0 0 0 0 0 0 0 0 0 0 0 0 0 0 0 0 0 0 0 0 0 0 0 0
0 0 0 0 0 0 0 0 0 0 0 0 0 0 0 0 0 0 0 0 0 0 0 0 0 0 0 0 0 0 0 0 0 0 0 0 0 0 0 0 0 0 0
0 0 0 0 0 0 0 0 0 0 0 0 0 0 0 0 0 0 0 0 0 0 0 0 0 0 0 0 0 0 0 0 0 0 0 0 0 0 0 0 0 -0 -0
0 0 0 0 0 0 0 0 0 0 0 0 0 0 0 0 0 0 0 0 0 0 0 0 0 0 0 0 0 0 0 0 0 0 0 0 0 0 0 0 0 -0 -0
0 0 0 0 0 0 0 0 0 0 0 0 0 0 0 0 0 0 0 0 0 0 0 0 0 0 0 0 0 0 0 0 0 0 0 0 0 0 0 0 -0 -0 -0
0 0 0 0 0 0 0 0 0 0 0 0 0 0 0 0 0 0 0 0 0 0 0 0 0 0 0 0 0 0 0 0 0 0 0 0 -0 -0 0 0 -0 -0 -0
0 0 0 0 0 0 0 0 0 0 0 0 0 0 0 0 0 0 0 0 0 0 0 0 0 0 0 0 0 0 0 0 0 0 0 0 0 0 -0 -0 -0 -0 -0
0 0 0 0 0 0 0 0 0 0 0 0 0 0 0 0 0 0 0 0 0 0 0 0 0 0 0 0 0 0 0 0 0 0 0 0 0 -0 -0 -0 -0 -0 -0
0 0 0 0 0 0 0 0 0 0 0 0 0 0 0 0 0 0 0 0 0 0 0 0 0 0 0 0 0 0 0 0 0 0 0 0 0 -0 -0 0 0 -0 0
0 0 0 0 0 0 0 0 0 0 0 0 0 0 0 0 0 0 0 0 0 0 0 0 0 0 0 0 0 0 0 0 0 0 0 0 0 -0 -0 0 -0 -0 -0
0 0 0 0 0 0 0 0 -0 -0 0 0 0 0 0 0 0 0 0 0 0 0 0 0 0 0 0 0 0 0 0 0 0 0 0 0 0 0 0 0 0 0 0
0 0 0 0 0 0 0 0 -0 0 0 0 0 0 0 0 0 0 0 0 0 0 0 0 0 0 0 -0 -0 -0 0 -0 -0 0 0 0 0 0 0 0 0 0 0
-0 0 0 0 0 0 0 -0 0 0 0 0 0 0 -0 0 0 0 0 0 0 0 0 0 0 -0 -0 -0 -0 -0 0 0 -0 -0 -0 0 0 0 0 0 0 0 0
0 0 0 -0 0 0 0 0 0 0 0 -0 -0 -0 -0 0 0 0 0 0 0 0 0 -0 -0 -0 0 0 0 0 0 0 0 0 -0 0 0 0 0 0 0 0 0
Wind_Speed_500mb
41 40 39 39 41 39 37 33 32 30 29 28 29 30 30 25 21 18 21 21 26 23 22 25 20 19 23 29 32 30 35 36 42 46 48 46 52 44 47 55 51 55 56
43 42 41 41 41 40 37 35 35 34 35 33 32 28 29 27 28 27 26 26 25 22 26 22 23 20 26 32 30 34 38 41 46 47 47 50 53 54 56 57 61 61 54
45 43 45 45 40 36 33 33 35 36 37 33 33 30 28 29 31 28 25 32 27 25 23 23 19 24 29 33 32 34 40 42 43 46 47 53 57 59 61 59 59 55 53
51 48 48 49 44 40 36 34 31 31 30 34 34 33 30 34 33 30 35 35 28 28 20 22 21 25 30 30 32 35 37 39 41 40 49 53 59 56 56 54 52 52 47
50 53 49 46 46 45 42 40 36 34 34 35 36 32 32 34 35 35 37 34 28 25 22 23 23 28 32 31 32 34 35 35 37 47 61 59 60 53 49 46 45 51 50
41 46 54 49 44 49 49 45 45 40 36 32 31 33 37 37 34 32 31 31 29 29 27 29 29 33 33 36 35 32 39 42 49 63 71 69 57 49 47 46 44 44 47
39 46 50 50 53 52 53 49 49 47 45 41 40 37 35 31 29 35 36 31 35 34 35 35 34 35 38 38 34 36 42 49 61 71 65 62 50 45 42 44 46 46 47
40 44 52 52 53 61 56 59 51 52 50 49 47 38 29 24 22 29 33 34 34 34 33 36 35 37 36 33 34 39 47 58 67 66 67 49 43 41 40 43 43 45 46
39 37 38 53 54 54 62 60 59 55 55 52 50 42 19 20 23 22 26 30 29 31 34 37 32 28 28 28 35 44 54 63 66 62 51 38 35 37 44 42 42 47 45
31 35 38 44 47 55 65 63 66 62 52 59 46 52 44 42 25 19 18 26 29 30 31 30 26 24 26 33 41 48 55 62 62 56 35 34 31 35 42 40 43 46 45
31 36 35 44 45 47 57 66 64 53 64 59 52 53 44 43 32 17 15 25 26 29 29 28 23 25 32 37 45 54 55 54 52 38 35 33 33 37 38 41 42 42 45
34 37 42 43 46 50 56 59 62 67 68 65 46 41 43 41 40 32 28 31 32 28 29 26 25 30 33 39 47 52 50 47 36 34 41 37 35 37 42 44 44 45 47
36 36 36 44 45 47 51 54 52 70 69 56 44 38 41 35 28 23 27 23 27 33 30 27 30 31 34 44 50 50 45 37 34 28 37 37 42 40 45 42 43 45 45
39 40 42 41 48 43 46 50 55 57 61 53 46 38 33 29 24 14 11 16 26 29 31 32 31 31 36 42 46 44 38 34 33 25 37 45 49 51 45 43 43 45 44
44 46 50 44 43 43 51 46 46 57 58 53 49 41 29 27 24 21 23 26 29 23 25 30 25 26 36 39 38 38 37 37 33 26 31 42 52 48 41 40 41 45 43
47 51 52 37 36 38 50 59 62 53 51 44 43 43 34 31 18 22 30 23 26 23 20 18 19 23 29 31 34 37 37 32 29 20 29 37 39 40 39 37 41 46 44
47 54 44 30 37 38 50 52 62 61 52 47 48 38 33 23 14 11 12 25 18 17 15 14 17 19 18 24 29 36 34 25 25 27 30 34 36 40 42 36 41 46 44
48 46 29 30 33 41 49 53 63 49 50 50 37 31 24 15 11 6 20 14 11 8 9 8 10 9 15 25 32 33 24 26 25 28 33 41 50 52 41 37 46 50 44
36 29 24 24 35 36 49 55 55 52 44 40 35 27 24 19 14 14 6 5 6 4 1 1 2 6 15 19 21 26 23 24 25 24 30 44 50 51 53 42 46 51 41
27 24 23 23 24 28 41 52 52 49 46 34 28 28 27 21 16 9 3 2 4 7 12 13 14 16 20 26 25 31 26 19 21 25 31 35 39 47 48 41 49 40 41
23 24 22 21 29 41 45 48 44 44 42 42 41 36 29 26 17 3 4 8 14 17 22 22 23 25 30 39 45 40 34 28 20 35 35 35 38 48 48 44 47 41 43
18 20 26 29 38 44 49 46 42 43 46 45 36 32 25 14 13 12 15 19 23 21 25 21 24 25 30 35 37 39 40 37 37 38 36 47 31 39 45 41 43 45 44
15 21 24 27 36 39 36 47 53 46 41 38 31 26 28 25 23 24 24 23 27 24 20 23 23 26 31 34 38 42 40 24 27 36 44 45 38 30 38 39 41 41 39
12 28 39 40 40 41 42 38 38 33 29 31 30 28 23 27 28 27 25 27 26 21 20 20 21 24 28 28 33 37 31 24 29 42 51 50 35 27 33 34 32 32 31
37 43 44 45 46 42 37 33 25 14 25 33 34 26 24 28 31 28 29 26 25 19 20 19 21 24 22 24 29 33 39 31 32 36 56 50 40 22 40 39 32 29 29
51 52 49 40 39 40 33 20 11 27 33 36 35 31 27 27 29 30 28 27 22 22 22 22 23 22 18 22 25 39 44 48 41 28 53 39 36 25 15 42 39 38 36
Wind_Direction_500mb
259 261 262 258 255 253 250 248 244 245 241 234 235 252 253 260 262 278 261 276 296 292 293 305 304 310 319 323 330 330 332 337 340 341 343 343 338 330 327 319 314 312 310
264 264 262 261 260 259 254 248 243 242 234 236 239 250 259 256 259 270 263 280 282 284 293 297 307 308 312 317 324 324 331 333 338 338 341 336 331 323 320 315 315 313 311
266 264 263 262 260 257 249 245 243 241 238 235 241 247 254 259 265 264 266 270 275 284 287 300 302 305 310 310 316 321 324 330 331 331 329 326 324 317 315 315 312 310 304
265 266 264 260 257 249 242 241 238 239 245 249 250 253 263 268 261 254 261 262 260 276 282 298 290 293 296 300 305 310 318 318 321 322 322 319 316 317 318 321 317 313 314
280 267 264 264 257 247 242 241 243 250 254 257 261 256 264 266 262 258 260 269 262 273 281 274 276 278 284 289 294 301 312 315 313 320 318 319 319 324 325 321 319 315 317
294 286 273 264 257 252 238 240 243 248 259 253 253 261 273 271 256 252 249 252 249 262 263 266 265 272 276 277 284 296 302 308 314 316 316 319 324 328 327 326 325 326 323
292 285 284 273 256 251 242 237 246 251 254 249 250 262 254 257 247 265 256 240 260 258 261 257 260 263 265 278 283 297 300 309 312 314 320 323 327 328 331 328 326 326 322
285 280 277 273 267 256 247 241 247 248 249 245 250 245 238 249 247 251 261 252 252 248 253 256 259 260 265 272 286 294 303 310 313 318 323 324 326 328 329 328 327 327 323
283 275 265 264 269 264 258 241 242 242 243 245 244 242 245 246 237 226 229 239 237 243 254 257 254 255 264 277 289 302 311 316 319 322 325 329 328 329 328 329 330 325 325
288 272 259 257 265 266 255 253 244 242 237 242 241 250 251 252 237 220 221 223 232 241 246 244 246 257 273 288 298 310 318 318 321 325 337 327 333 329 329 331 325 322 320
306 279 265 257 259 255 253 246 250 244 230 234 238 247 254 247 240 234 221 220 219 231 235 240 252 270 284 296 310 317 320 321 323 337 330 326 329 327 334 331 325 325 330
313 310 278 258 256 257 258 256 252 242 239 233 234 244 252 242 261 253 230 219 223 235 238 245 263 279 291 307 314 317 321 323 332 334 332 335 336 337 334 326 326 324 322
307 314 300 276 263 263 261 252 233 229 230 229 234 243 249 254 253 239 243 241 237 241 239 255 269 283 303 311 314 320 325 326 329 331 327 332 342 334 327 326 324 324 323
297 301 300 290 274 265 266 251 239 230 227 232 233 242 257 248 233 228 256 275 253 247 252 261 276 294 305 313 316 323 325 332 326 324 323 328 335 340 334 332 331 323 326
290 295 297 288 268 262 258 231 231 233 230 232 237 238 221 204 209 249 288 312 262 259 263 266 281 300 311 316 324 330 337 331 327 323 326 328 330 337 335 331 333 326 325
287 293 292 273 267 256 256 252 248 237 233 230 233 209 209 206 223 264 261 285 258 262 260 277 292 308 317 330 338 345 335 328 328 332 326 326 339 343 343 341 341 333 330
290 290 291 267 263 264 256 247 238 224 227 221 193 178 176 190 211 267 271 249 265 267 271 279 295 316 329 337 346 344 338 341 10 352 358 359 360 2 357 348 348 345 343
292 292 292 268 262 259 259 237 221 217 209 181 171 175 170 167 164 223 239 254 265 288 290 278 303 332 346 348 349 345 1 16 20 26 26 18 14 10 2 6 358 352 355
303 295 292 279 261 269 232 212 193 182 169 170 172 170 160 139 141 205 205 265 290 271 301 154 95 7 358 352 3 19 29 27 31 25 13 4 359 359 358 9 2 358 2
303 302 298 270 252 225 202 184 172 171 170 166 155 138 132 135 143 115 42 342 91 97 105 105 88 58 40 35 28 29 28 7 4 1 352 351 351 1 358 7 8 10 5
298 281 272 243 217 188 181 178 172 163 153 141 136 134 123 107 90 50 53 102 103 112 108 99 82 60 45 40 36 24 17 8 5 16 12 356 351 359 6 10 11 12 17
283 254 231 218 190 181 167 158 149 141 133 133 131 122 117 112 92 98 114 115 123 117 109 95 76 54 44 41 32 19 11 7 15 7 11 12 355 5 10 10 7 6 14
243 210 190 182 158 143 149 142 138 135 139 132 122 111 113 103 96 103 104 115 116 108 103 88 72 52 40 32 26 22 13 22 22 11 10 10 15 26 13 10 6 8 22
190 157 147 143 140 132 127 131 130 129 127 112 115 117 108 101 99 102 109 112 101 100 96 81 54 44 44 34 29 23 19 23 30 20 10 7 30 43 24 22 16 16 26
155 142 131 122 116 102 96 94 105 101 112 117 123 119 108 106 96 101 110 106 98 92 81 66 50 41 38 30 25 15 29 26 25 18 13 20 25 49 39 34 32 30 35
131 124 112 105 99 94 91 89 114 127 121 122 126 106 94 92 100 99 106 108 106 91 75 59 49 39 31 20 9 18 18 26 27 20 12 22 31 31 51 43 44 48 53
Wind_Speed_850mb
41 40 39 39 41 39 37 33 32 30 29 28 29 30 30 25 21 18 21 21 26 23 22 25 20 19 23 29 32 30 35 36 42 46 48 46 52 44 47 55 51 55 56
43 42 41 41 41 40 37 35 35 34 35 33 32 28 29 27 28 27 26 26 25 22 26 22 23 20 26 32 30 34 38 41 46 47 47 50 53 54 56 57 61 61 54
45 43 45 45 40 36 33 33 35 36 37 33 33 30 28 29 31 28 25 32 27 25 23 23 19 24 29 33 32 34 40 42 43 46 47 53 57 59 61 59 59 55 53
51 48 48 49 44 40 36 34 31 31 30 34 34 33 30 34 33 30 35 35 28 28 20 22 21 25 30 30 32 35 37 39 41 40 49 53 59 56 56 54 52 52 47
50 53 49 46 46 45 42 40 36 34 34 35 36 32 32 34 35 35 37 34 28 25 22 23 23 28 32 31 32 34 35 35 37 47 61 59 60 53 49 46 45 51 50
41 46 54 49 44 49 49 45 45 40 36 32 31 33 37 37 34 32 31 31 29 29 27 29 29 33 33 36 35 32 39 42 49 63 71 69 57 49 47 46 44 44 47
39 46 50 50 53 52 53 49 49 47 45 41 40 37 35 31 29 35 36 31 35 34 35 35 34 35 38 38 34 36 42 49 61 71 65 62 50 45 42 44 46 46 47
40 44 52 52 53 61 56 59 51 52 50 49 47 38 29 24 22 29 33 34 34 34 33 36 35 37 36 33 34 39 47 58 67 66 67 49 43 41 40 43 43 45 46
39 37 38 53 54 54 62 60 59 55 55 52 50 42 19 20 23 22 26 30 29 31 34 37 32 28 28 28 35 44 54 63 66 62 51 38 35 37 44 42 42 47 45
31 35 38 44 47 55 65 63 66 62 52 59 46 52 44 42 25 19 18 26 29 30 31 30 26 24 26 33 41 48 55 62 62 56 35 34 31 35 42 40 43 46 45
31 36 35 44 45 47 57 66 64 53 64 59 52 53 44 43 32 17 15 25 26 29 29 28 23 25 32 37 45 54 55 54 52 38 35 33 33 37 38 41 42 42 45
34 37 42 43 46 50 56 59 62 67 68 65 46 41 43 41 40 32 28 31 32 28 29 26 25 30 33 39 47 52 50 47 36 34 41 37 35 37 42 44 44 45 47
36 36 36 44 45 47 51 54 52 70 69 56 44 38 41 35 28 23 27 23 27 33 30 27 30 31 34 44 50 50 45 37 34 28 37 37 42 40 45 42 43 45 45
39 40 42 41 48 43 46 50 55 57 61 53 46 38 33 29 24 14 11 16 26 29 31 32 31 31 36 42 46 44 38 34 33 25 37 45 49 51 45 43 43 45 44
44 46 50 44 43 43 51 46 46 57 58 53 49 41 29 27 24 21 23 26 29 23 25 30 25 26 36 39 38 38 37 37 33 26 31 42 52 48 41 40 41 45 43
47 51 52 37 36 38 50 59 62 53 51 44 43 43 34 31 18 22 30 23 26 23 20 18 19 23 29 31 34 37 37 32 29 20 29 37 39 40 39 37 41 46 44
47 54 44 30 37 38 50 52 62 61 52 47 48 38 33 23 14 11 12 25 18 17 15 14 17 19 18 24 29 36 34 25 25 27 30 34 36 40 42 36 41 46 44
48 46 29 30 33 41 49 53 63 49 50 50 37 31 24 15 11 6 20 14 11 8 9 8 10 9 15 25 32 33 24 26 25 28 33 41 50 52 41 37 46 50 44
36 29 24 24 35 36 49 55 55 52 44 40 35 27 24 19 14 14 6 5 6 4 1 1 2 6 15 19 21 26 23 24 25 24 30 44 50 51 53 42 46 51 41
27 24 23 23 24 28 41 52 52 49 46 34 28 28 27 21 16 9 3 2 4 7 12 13 14 16 20 26 25 31 26 19 21 25 31 35 39 47 48 41 49 40 41
23 24 22 21 29 41 45 48 44 44 42 42 41 36 29 26 17 3 4 8 14 17 22 22 23 25 30 39 45 40 34 28 20 35 35 35 38 48 48 44 47 41 43
18 20 26 29 38 44 49 46 42 43 46 45 36 32 25 14 13 12 15 19 23 21 25 21 24 25 30 35 37 39 40 37 37 38 36 47 31 39 45 41 43 45 44
15 21 24 27 36 39 36 47 53 46 41 38 31 26 28 25 23 24 24 23 27 24 20 23 23 26 31 34 38 42 40 24 27 36 44 45 38 30 38 39 41 41 39
12 28 39 40 40 41 42 38 38 33 29 31 30 28 23 27 28 27 25 27 26 21 20 20 21 24 28 28 33 37 31 24 29 42 51 50 35 27 33 34 32 32 31
37 43 44 45 46 42 37 33 25 14 25 33 34 26 24 28 31 28 29 26 25 19 20 19 21 24 22 24 29 33 39 31 32 36 56 50 40 22 40 39 32 29 29
51 52 49 40 39 40 33 20 11 27 33 36 35 31 27 27 29 30 28 27 22 22 22 22 23 22 18 22 25 39 44 48 41 28 53 39 36 25 15 42 39 38 36
Wind_Direction_850mb
259 261 262 258 255 253 250 248 244 245 241 234 235 252 253 260 262 278 261 276 296 292 293 305 304 310 319 323 330 330 332 337 340 341 343 343 338 330 327 319 314 312 310
264 264 262 261 260 259 254 248 243 242 234 236 239 250 259 256 259 270 263 280 282 284 293 297 307 308 312 317 324 324 331 333 338 338 341 336 331 323 320 315 315 313 311
266 264 263 262 260 257 249 245 243 241 238 235 241 247 254 259 265 264 266 270 275 284 287 300 302 305 310 310 316 321 324 330 331 331 329 326 324 317 315 315 312 310 304
265 266 264 260 257 249 242 241 238 239 245 249 250 253 263 268 261 254 261 262 260 276 282 298 290 293 296 300 305 310 318 318 321 322 322 319 316 317 318 321 317 313 314
280 267 264 264 257 247 242 241 243 250 254 257 261 256 264 266 262 258 260 269 262 273 281 274 276 278 284 289 294 301 312 315 313 320 318 319 319 324 325 321 319 315 317
294 286 273 264 257 252 238 240 243 248 259 253 253 261 273 271 256 252 249 252 249 262 263 266 265 272 276 277 284 296 302 308 314 316 316 319 324 328 327 326 325 326 323
292 285 284 273 256 251 242 237 246 251 254 249 250 262 254 257 247 265 256 240 260 258 261 257 260 263 265 278 283 297 300 309 312 314 320 323 327 328 331 328 326 326 322
285 280 277 273 267 256 247 241 247 248 249 245 250 245 238 249 247 251 261 252 252 248 253 256 259 260 265 272 286 294 303 310 313 318 323 324 326 328 329 328 327 327 323
283 275 265 264 269 264 258 241 242 242 243 245 244 242 245 246 237 226 229 239 237 243 254 257 254 255 264 277 289 302 311 316 319 322 325 329 328 329 328 329 330 325 325
288 272 259 257 265 266 255 253 244 242 237 242 241 250 251 252 237 220 221 223 232 241 246 244 246 257 273 288 298 310 318 318 321 325 337 327 333 329 329 331 325 322 320
306 279 265 257 259 255 253 246 250 244 230 234 238 247 254 247 240 234 221 220 219 231 235 240 252 270 284 296 310 317 320 321 323 337 330 326 329 327 334 331 325 325 330
313 310 278 258 256 257 258 256 252 242 239 233 234 244 252 242 261 253 230 219 223 235 238 245 263 279 291 307 314 317 321 323 332 334 332 335 336 337 334 326 326 324 322
307 314 300 276 263 263 261 252 233 229 230 229 234 243 249 254 253 239 243 241 237 241 239 255 269 283 303 311 314 320 325 326 329 331 327 332 342 334 327 326 324 324 323
297 301 300 290 274 265 266 251 239 230 227 232 233 242 257 248 233 228 256 275 253 247 252 261 276 294 305 313 316 323 325 332 326 324 323 328 335 340 334 332 331 323 326
290 295 297 288 268 262 258 231 231 233 230 232 237 238 221 204 209 249 288 312 262 259 263 266 281 300 311 316 324 330 337 331 327 323 326 328 330 337 335 331 333 326 325
287 293 292 273 267 256 256 252 248 237 233 230 233 209 209 206 223 264 261 285 258 262 260 277 292 308 317 330 338 345 335 328 328 332 326 326 339 343 343 341 341 333 330
290 290 291 267 263 264 256 247 238 224 227 221 193 178 176 190 211 267 271 249 265 267 271 279 295 316 329 337 346 344 338 341 10 352 358 359 360 2 357 348 348 345 343
292 292 292 268 262 259 259 237 221 217 209 181 171 175 170 167 164 223 239 254 265 288 290 278 303 332 346 348 349 345 1 16 20 26 26 18 14 10 2 6 358 352 355
303 295 292 279 261 269 232 212 193 182 169 170 172 170 160 139 141 205 205 265 290 271 301 154 95 7 358 352 3 19 29 27 31 25 13 4 359 359 358 9 2 358 2
303 302 298 270 252 225 202 184 172 171 170 166 155 138 132 135 143 115 42 342 91 97 105 105 88 58 40 35 28 29 28 7 4 1 352 351 351 1 358 7 8 10 5
298 281 272 243 217 188 181 178 172 163 153 141 136 134 123 107 90 50 53 102 103 112 108 99 82 60 45 40 36 24 17 8 5 16 12 356 351 359 6 10 11 12 17
283 254 231 218 190 181 167 158 149 141 133 133 131 122 117 112 92 98 114 115 123 117 109 95 76 54 44 41 32 19 11 7 15 7 11 12 355 5 10 10 7 6 14
243 210 190 182 158 143 149 142 138 135 139 132 122 111 113 103 96 103 104 115 116 108 103 88 72 52 40 32 26 22 13 22 22 11 10 10 15 26 13 10 6 8 22
190 157 147 143 140 132 127 131 130 129 127 112 115 117 108 101 99 102 109 112 101 100 96 81 54 44 44 34 29 23 19 23 30 20 10 7 30 43 24 22 16 16 26
155 142 131 122 116 102 96 94 105 101 112 117 123 119 108 106 96 101 110 106 98 92 81 66 50 41 38 30 25 15 29 26 25 18 13 20 25 49 39 34 32 30 35
131 124 112 105 99 94 91 89 114 127 121 122 126 106 94 92 100 99 106 108 106 91 75 59 49 39 31 20 9 18 18 26 27 20 12 22 31 31 51 43 44 48 53